DELTA 1 DEB *, 8791

Orbit data source: Space-Track

DELTA 1 DEB *, 8791 is space debris in SSO originally from a launch on Sun, 02 Oct 1966 UTC launched from the Air Force Western Test Range (AFWTR). Debris objects in space refer to the collection of defunct objects orbiting the Earth. Examples of debris include non-operational satellites, rocket bodies, and fragments generated from explosions, collisions, or faulty payload assembly.

Loading next visibility...
Identifier
8791, 1966-087F
Orbit
SSO
Last TLE update
22 hours ago
Origin
Manufacturer
Unknown
Mission
Spacecraft
Bus & Motor
Unknown
Mass
Unknown
Launch date (UTC)
1966-10-02 (59 years ago)
Launch vehicle
Unknown
Launch site
Air Force Western Test Range (AFWTR)
Object type
Payload
Rocket body
Debris
Shape & HBR
Unknown
Radar Cross Section
Small (<0.1 m²)

Expand to show TLE details & history

TLE from 22 hours ago
0 DELTA 1 DEB *
1 08791U 66087F   25128.43233902  .00000160  00000-0  10909-2 0  9994
2 08791 101.6052 104.4651 0139528 282.0528 237.2463 12.63720283693276
Epoch: 2025-05-08T10:22Z
Definitive object data (Epoch: 2025-05-08T10:22:34.091Z)
Latitude
21.57193°
Longitude
-93.04556°
Altitude
1,469.824 km
Speed
7.102 km/s
True Right ascension
19h 16m 23s
True Declination
21° 27' 55"
Sunlit
Object was in daylight at TLE epoch
Visualization TLE readout
Latitude
32.54024°
Longitude
75.7467°
Altitude
1,452.75 km
Speed
7.12 km/s
Apparent Right ascension
05h 43m 57s
Apparent Declination
0° 37' 27"
Sunlit
Object is in daylight
Visualization observer readout
Local Sidereal Time
16:39:20
Azimuth
335.996° NNW
Elevation
-46.859°
Doppler factor
1
Orbital elements
Apogee altitude
1,513.745 km
Perigee altitude
1,296.548 km
Semi-major axis
7,783.283 km
Eccentricity
0.0139528
Inclination
101.6052°
RAAN
104.4651°
Arg. of periapsis
282.0528°
True anomaly
235.91434°
Mean anomaly
237.2463°
Eccentric anomaly
236.57905°
Mean motion
3.16081 °/min
BSTAR
0.0010909
Orbital period
113.89 mins
Loading maneuver chart data...
Loading SW <> Apogee altitude chart data...
Loading historical data...
Loading historical data...
Loading historical data...
Loading historical data...
Loading historical data...
Loading historical data...
Loading historical data...
Other satellites on launch #87 in the year 1966 (1966-10-02 UTC)

DELTA 1 DEB * Visibility forecast

Observer location: undefined°, undefined°

Span
Click to sort rows by Start time (UTC) header in descending order
Start Az.
Max El. time (UTC)
Max El. Az.
Max El.
End time (UTC)
End Az.
16 mins2025-05-09 10:51:10.200Z25.273° NE2025-05-09 10:59:10.200Z107.415° ESE40.795°2025-05-09 11:07:10.200Z181.908° SSW
13 mins2025-05-09 12:44:10.200Z356.606° N2025-05-09 12:50:10.200Z304.725° NW28.951°2025-05-09 12:57:10.200Z244.176° WSW
7 mins2025-05-09 19:58:10.200Z68.345° E2025-05-09 20:01:10.200Z44.451° NE15.682°2025-05-09 20:05:10.200Z15.351° NNE
15 mins2025-05-09 21:44:10.200Z147.255° SSE2025-05-09 21:51:10.200Z64.493° ENE43.076°2025-05-09 21:59:10.200Z347.818° N
12 mins2025-05-09 23:38:10.200Z219.164° SW2025-05-09 23:43:10.200Z261.94° W23.28°2025-05-09 23:50:10.200Z318.624° NNW
|